Location: ??? ?????
(30.6482°N, 60.5850°E)
Time: 22:22:43
(UTC+00:00)

ATLAS 2AS CENTAUR R/B - Pass Details

Date: 09 April 2020
Orbit: 929 x 1283 km, 63.7° (Epoch: 21 May)

Event Time Altitude Azimuth Distance (km) Brightness Sun altitude
Rises 16:26:19 0° 328° (NNW) 4,078 6.7 -26.1°
Reaches altitude 10° 16:29:10 10° 326° (NNW) 3,064 5.9 -26.7°
Maximum altitude 16:36:23 70° 245° (WSW) 1,149 2.8 -28.0°
Enters shadow 16:38:04 51° 184° (S) 1,311 2.9 -28.3°
